SCP
0 0 0 -0 -0 -0 -0 -0 -0 -0 0 0 0 0 0 0 -0 -0 -0 -0 -0 -0 0 0 0 0 0 0 0 0 0 -0 -0 0 0 0 0 0 0 0 0 0 0 0 0 0 0
0 0 0 0 0 0 -0 -0 0 0 0 0 0 0 0 0 0 -0 -0 -0 -0 0 -0 -0 0 0 0 0 -0 0 -0 -0 -0 0 0 0 0 0 0 0 0 0 0 0 0 0 0
0 0 0 0 0 0 0 0 0 0 0 0 0 0 0 0 0 -0 -0 -0 -0 -0 0 0 0 0 0 -0 -0 0 0 -0 -0 0 0 0 0 0 0 0 0 0 0 0 -0 0 0
0 0 0 0 0 0 0 0 0 0 0 -0 -0 0 0 0 -0 -0 -0 -0 -0 -0 0 0 0 0 -0 0 0 -0 -0 -0 -0 0 0 0 0 0 0 0 0 0 0 0 0 0 0
0 0 0 0 0 0 0 0 0 0 0 0 0 0 -0 -0 -0 -0 -0 -0 0 0 0 0 0 0 -0 0 -0 0 -0 0 -0 0 0 0 0 0 0 0 0 0 0 0 0 0 0
0 0 0 0 0 0 0 0 0 0 0 0 0 0 0 0 0 -0 -0 0 -0 0 0 0 0 0 0 0 0 -0 0 0 0 -0 0 0 0 0 0 0 0 0 0 0 0 0 0
0 0 0 0 0 0 0 0 0 0 0 0 0 0 0 -0 0 0 0 0 0 0 0 0 0 0 0 0 0 0 0 0 0 0 0 0 0 0 0 0 0 0 0 0 0 0 0
0 0 0 0 0 0 0 0 0 0 0 0 0 0 -0 -0 -0 0 0 0 0 0 -0 -0 0 0 0 0 0 0 0 0 0 0 0 0 0 0 0 0 0 0 0 0 0 0 0
0 0 0 0 0 0 0 0 0 0 0 0 0 0 0 0 0 0 0 0 0 0 0 0 0 0 0 0 0 0 0 0 0 0 0 0 0 0 0 0 0 0 0 0 0 0 0
0 0 0 0 0 0 0 0 0 0 0 0 0 0 0 0 0 0 0 0 0 0 0 0 -0 -0 0 0 0 0 0 0 0 0 0 0 0 0 0 0 0 0 0 0 0 0 0
0 0 0 0 0 0 0 0 0 0 0 0 0 0 0 0 0 0 0 0 0 0 0 0 -0 0 0 0 0 0 0 0 0 0 0 0 0 0 0 0 0 0 0 0 0 0 0
0 0 0 0 0 0 0 0 0 0 0 0 0 0 0 0 0 0 0 0 0 0 0 0 0 0 0 -0 0 0 0 0 0 0 0 0 0 0 0 0 0 0 0 0 0 0 0
0 0 0 0 0 0 0 0 0 0 0 0 0 0 0 0 0 0 0 0 0 0 0 0 0 0 0 -0 -0 0 0 0 0 0 0 0 0 0 0 0 0 0 0 0 0 0 0
0 0 0 0 0 0 0 0 0 0 0 0 0 0 0 0 0 0 0 0 0 0 0 0 0 0 0 0 -0 0 0 0 0 0 0 0 0 0 0 0 0 0 0 0 0 0 0
0 0 0 0 0 0 0 0 0 0 0 0 0 0 0 0 0 0 0 0 0 0 0 0 0 0 0 0 0 0 0 0 0 0 0 0 0 0 0 0 0 0 0 0 0 0 0
0 0 0 0 0 0 0 0 0 0 0 0 0 0 0 0 0 0 0 0 0 0 0 0 0 0 0 0 0 0 0 0 0 0 0 0 0 0 0 0 0 0 0 0 0 0 0
0 0 0 0 0 0 0 0 0 0 0 0 -0 0 0 0 0 0 0 0 0 0 0 0 0 0 0 0 0 0 0 0 0 0 0 0 0 0 0 0 0 0 0 0 0 0 0
0 0 0 0 0 0 0 0 0 0 0 -0 -0 0 0 0 0 0 0 0 0 0 0 0 0 0 0 0 0 0 0 0 0 0 0 0 0 0 0 0 0 0 0 0 0 0 0
0 0 0 0 0 0 0 0 0 0 0 0 0 0 0 0 0 0 0 0 0 0 0 0 0 0 0 0 0 0 0 0 0 0 0 0 0 0 0 0 0 0 0 0 0 0 0
0 0 0 0 0 0 0 0 0 0 0 0 0 0 0 0 0 0 0 0 0 0 0 0 0 0 0 0 0 0 0 0 0 0 0 0 0 0 0 0 0 0 0 0 0 0 0
0 0 0 0 0 0 0 0 0 0 0 0 0 0 0 0 0 0 0 0 0 0 0 0 0 0 0 0 0 0 0 0 0 0 0 0 0 0 0 0 0 0 0 0 0 0 0
0 0 0 0 0 0 0 0 0 0 0 0 0 0 0 0 0 0 0 0 0 0 0 0 0 0 0 0 0 0 0 0 0 0 0 0 0 0 0 0 0 0 0 0 0 0 0
0 0 0 0 0 0 0 0 0 0 0 0 0 0 0 0 0 0 0 0 0 0 0 0 0 0 0 0 0 0 0 0 0 0 0 0 0 0 0 0 0 0 0 0 0 0 0
0 0 0 0 0 0 0 0 0 0 0 0 0 0 0 0 0 0 0 0 0 0 0 0 0 0 0 0 0 0 0 0 0 0 0 0 0 0 0 0 0 0 0 0 0 0 0
0 0 0 0 0 0 0 0 0 0 0 0 0 0 0 0 0 0 0 0 0 0 0 0 0 0 0 0 0 0 0 0 0 0 0 0 0 0 0 0 0 0 0 0 0 0 0
0 0 0 0 0 0 0 0 0 0 0 0 0 0 0 0 0 0 0 0 0 0 0 0 0 0 0 0 0 0 0 0 0 0 0 0 0 0 0 0 0 0 0 0 0 0 0
0 0 0 0 0 0 0 0 0 0 0 0 0 0 0 0 0 0 0 0 0 0 0 0 0 0 0 0 0 0 0 0 0 0 0 0 0 0 0 0 0 0 0 0 0 0 0
0 0 0 0 0 0 0 0 0 0 0 0 0 0 0 0 0 0 0 0 0 0 0 0 0 0 0 0 0 0 0 0 0 0 0 0 0 0 0 0 0 0 0 0 0 0 0
0 0 0 0 0 0 0 0 0 0 0 0 0 0 0 0 0 0 0 0 0 0 0 0 0 0 0 0 0 0 0 0 0 0 0 0 0 0 0 0 0 0 0 0 0 0 0
Wind_Speed_500mb
36 39 38 40 41 41 43 44 44 44 41 37 36 36 36 37 39 43 44 47 48 48 43 41 34 25 25 16 36 22 22 18 47 68 63 47 39 33 14 15 5 10 4 34 37 38 43
42 41 41 40 42 45 45 46 44 43 41 38 39 39 41 43 44 48 50 51 52 45 40 36 29 23 20 12 18 19 19 8 55 72 55 41 33 40 22 10 20 12 26 19 35 44 62
41 43 40 41 43 43 45 47 47 42 43 42 43 44 45 49 52 54 56 55 50 40 33 22 22 22 26 46 21 14 8 6 45 68 66 53 24 35 15 8 33 47 8 15 34 40 26
38 39 38 40 43 45 46 48 46 43 44 47 49 51 52 53 54 57 58 56 47 33 25 13 18 19 24 16 25 29 14 23 40 41 50 45 41 36 8 12 5 15 9 10 17 26 37
37 39 40 41 42 45 47 47 47 44 46 49 50 54 55 56 56 57 60 54 29 19 13 10 15 14 26 14 28 23 28 17 37 38 40 12 32 22 8 6 8 6 10 10 16 23 20
36 40 42 42 43 46 48 49 50 50 50 51 53 54 54 50 48 53 62 30 7 12 6 10 13 12 21 7 16 28 33 29 30 33 22 24 23 10 3 8 9 9 6 8 11 7 11
41 46 48 48 48 49 50 51 53 53 53 54 55 55 49 47 48 59 42 2 6 3 23 25 16 18 30 14 10 27 27 36 33 16 13 17 7 10 16 15 12 6 5 10 9 11 2
47 50 52 51 50 51 50 50 52 54 56 57 56 53 51 51 51 31 18 4 4 2 18 38 46 47 45 42 12 27 37 21 17 12 6 8 13 19 12 11 10 10 6 13 12 10 10
48 52 54 51 49 51 53 53 52 55 55 56 56 57 55 48 39 10 20 7 20 14 8 16 35 31 30 21 17 23 39 30 7 8 7 11 9 8 10 8 9 10 9 12 14 5 3
52 55 56 57 57 56 55 53 55 56 58 56 57 58 54 50 18 11 6 20 28 6 6 9 10 12 24 18 10 22 44 24 3 16 11 9 13 9 6 12 13 11 14 22 18 9 7
52 56 58 57 55 58 58 56 59 59 58 55 53 54 55 47 37 35 3 17 10 5 4 8 7 8 19 29 5 19 40 32 14 11 11 12 3 5 4 10 11 18 17 25 14 7 10
51 53 57 56 56 58 61 61 59 61 59 59 57 52 56 43 35 17 14 2 5 7 11 7 12 12 10 9 4 13 17 35 8 9 3 12 4 5 10 8 3 11 7 14 9 7 2
50 53 56 58 57 60 60 64 63 63 62 61 60 52 47 47 24 18 9 4 6 7 2 11 10 10 12 11 7 9 11 13 11 6 3 4 5 5 3 1 13 15 11 4 5 3 10
52 54 57 59 63 66 64 62 63 64 61 61 60 55 45 33 23 26 9 6 8 11 9 5 11 10 10 10 10 13 12 8 5 6 6 9 4 10 1 6 6 4 10 10 13 8 7
59 54 57 62 66 63 62 60 60 62 65 61 66 59 37 18 32 31 13 6 12 11 5 3 7 9 8 5 8 9 15 14 13 12 13 9 3 9 9 5 7 2 6 6 12 6 6
53 55 53 60 60 58 57 57 57 59 65 58 64 64 31 22 29 36 7 10 9 9 0 5 6 2 5 10 6 5 12 3 9 13 8 10 4 4 4 1 7 5 6 3 7 9 7
49 47 50 53 56 55 51 52 53 56 61 55 45 28 10 29 35 17 7 12 11 25 13 8 9 5 6 8 9 1 3 7 13 9 10 7 7 6 3 2 4 7 3 9 9 8 9
43 43 50 56 56 52 44 46 48 50 59 49 20 6 13 28 2 4 6 10 11 17 28 6 6 7 7 6 6 6 7 4 5 7 6 4 8 5 5 10 2 7 4 7 8 8 5
43 46 50 55 54 45 38 38 38 39 44 53 34 16 5 32 5 8 11 13 12 6 7 5 4 4 6 7 10 8 9 10 8 7 7 5 3 4 5 9 12 8 6 10 9 5 8
49 48 50 48 47 46 41 39 38 32 33 39 16 7 10 1 4 7 10 9 8 2 4 12 11 8 9 7 11 7 7 12 13 13 24 10 6 6 9 6 5 3 3 6 12 4 3
49 47 44 42 42 43 40 38 33 32 31 27 6 5 8 7 7 14 9 10 10 5 12 8 9 5 9 8 5 7 7 7 15 18 11 8 6 4 2 5 3 8 10 14 13 12 16
45 42 42 40 41 40 38 32 27 27 29 11 8 8 16 13 17 9 5 7 5 3 7 4 10 2 10 9 5 10 10 3 4 12 7 7 5 4 5 6 7 7 16 13 16 22 23
44 41 40 40 42 42 39 32 23 19 22 10 13 11 6 11 8 6 6 12 11 10 18 15 12 9 16 7 10 14 8 12 14 11 5 5 9 5 6 9 12 11 11 14 4 8 10
41 42 42 41 38 36 35 30 21 16 10 17 21 17 6 6 4 5 16 18 15 10 10 9 16 8 6 7 4 5 5 9 12 6 10 8 7 5 1 7 3 8 11 12 22 10 12
50 45 42 43 43 37 36 31 24 18 14 17 20 14 7 5 6 9 15 12 14 22 12 11 13 9 10 5 6 7 7 3 4 10 9 8 8 7 4 3 11 1 4 4 4 2 5
50 49 43 42 40 34 34 32 28 22 17 22 19 18 11 5 5 9 5 9 6 7 6 5 12 8 3 6 5 5 6 5 6 7 9 9 9 7 6 4 7 7 5 13 4 4 1
45 48 47 41 37 35 32 30 28 22 18 22 23 18 10 8 7 4 2 1 3 6 2 5 6 7 9 4 4 4 4 4 6 11 10 7 3 11 7 5 12 7 13 15 4 6 4
44 45 46 43 39 36 33 32 29 22 18 22 13 16 17 9 21 22 16 11 4 4 6 3 3 6 6 5 5 3 3 4 4 6 10 9 12 7 7 7 12 9 4 0 5 5 4
42 46 47 44 36 30 29 29 28 16 17 23 18 19 20 13 12 14 27 30 23 12 8 5 8 3 3 6 3 3 4 6 2 5 5 7 8 6 9 3 5 9 7 6 13 5 10
Wind_Direction_500mb
344 342 337 334 333 334 333 334 336 336 337 335 332 331 328 327 325 323 319 316 316 307 304 307 289 270 285 278 265 303 305 276 188 186 190 194 178 174 187 194 142 195 164 198 230 237 275
340 340 339 332 330 328 328 330 330 330 332 332 328 327 325 324 323 321 319 316 314 302 298 302 272 256 262 262 280 304 343 266 182 182 182 186 187 177 192 205 184 209 212 209 239 232 237
336 336 335 331 329 332 329 327 325 322 323 325 321 319 318 318 318 321 318 319 314 297 292 293 254 252 260 257 280 290 336 234 184 183 185 188 192 194 199 177 232 229 167 225 231 230 236
330 332 334 334 334 331 331 328 324 321 318 319 317 315 314 313 315 317 318 319 312 289 282 268 251 254 257 272 231 246 194 174 192 190 201 203 197 213 264 290 102 159 154 224 235 218 233
334 335 334 333 332 332 335 334 331 327 324 322 319 317 314 313 314 318 317 321 306 272 268 240 238 234 266 222 223 234 218 182 180 195 207 153 212 228 248 152 19 355 177 183 270 201 204
339 339 338 336 336 334 337 336 334 331 329 327 323 321 318 318 319 319 319 321 283 251 214 189 209 282 253 196 287 234 240 212 174 186 205 209 212 186 86 103 202 214 197 206 212 235 200
345 343 340 338 337 334 332 332 331 329 327 329 329 327 325 320 323 320 319 318 173 203 216 216 188 229 295 294 225 208 221 214 219 182 173 184 152 198 206 181 191 237 225 233 238 240 261
341 340 338 335 332 329 328 328 327 327 327 329 332 331 326 322 325 326 342 191 325 354 287 264 248 252 260 272 293 237 206 193 168 203 133 40 211 216 201 176 203 223 248 276 283 266 160
335 335 335 333 330 325 323 323 324 325 326 327 331 331 329 324 321 300 330 23 0 289 256 274 232 232 243 219 224 244 196 194 146 138 168 173 236 168 169 224 207 232 197 254 218 329 210
334 334 334 335 336 333 329 324 326 325 324 326 328 331 331 326 311 276 357 348 349 163 20 262 221 231 180 183 239 236 197 189 119 185 171 228 284 222 214 237 184 256 207 238 254 134 219
334 337 338 337 334 334 335 330 324 322 321 323 322 326 328 322 292 278 300 337 344 108 332 170 167 165 171 166 146 187 199 203 174 185 118 233 220 79 239 207 161 229 217 207 210 180 123
328 331 328 326 328 329 330 331 326 322 320 321 320 322 321 312 281 219 280 1 144 36 253 209 150 169 140 180 175 165 161 201 203 160 202 218 234 222 215 273 209 274 107 53 48 96 206
323 326 328 326 327 331 330 330 329 324 322 321 317 318 312 291 272 193 273 191 67 199 243 180 194 160 176 172 186 172 159 157 170 152 231 282 211 264 242 56 359 50 60 0 323 352 214
319 318 320 324 326 329 332 330 330 325 323 319 316 315 306 268 218 234 220 58 206 231 230 245 151 124 181 162 220 179 136 176 208 145 122 180 219 166 59 122 191 17 134 151 204 200 230
316 318 316 318 320 322 328 328 329 326 326 326 320 318 304 243 209 203 185 189 217 217 265 304 112 137 217 165 140 132 185 199 195 166 161 164 255 78 100 167 132 217 58 175 105 14 71
315 314 316 315 317 321 325 328 329 329 329 334 330 323 302 198 190 177 121 240 249 232 250 332 152 192 164 196 112 119 159 2 156 187 163 198 132 31 111 281 28 124 150 71 16 144 202
312 317 316 318 321 323 326 327 329 331 332 338 336 326 338 178 174 173 196 232 276 287 265 175 201 116 148 134 127 202 58 31 28 13 126 107 111 272 87 88 140 21 46 71 109 133 164
323 319 317 323 324 326 328 327 330 336 337 344 357 330 46 159 99 219 202 208 267 289 304 196 123 116 137 127 120 122 119 124 257 349 48 16 124 151 211 309 285 90 120 119 138 202 163
322 318 320 325 328 323 325 327 329 337 342 340 322 280 54 200 256 268 281 289 289 302 316 346 114 167 81 118 108 108 99 21 92 88 157 165 44 96 24 349 12 102 120 118 103 81 193
323 319 323 326 328 326 326 327 328 336 337 337 306 326 321 84 111 359 330 279 285 226 55 16 344 87 85 67 18 112 95 15 31 83 59 89 91 147 189 149 164 157 92 146 121 188 226
315 316 324 327 325 325 325 326 331 343 340 334 281 293 346 324 339 335 315 294 309 283 122 102 328 34 138 112 80 87 58 30 36 1 41 81 113 81 7 289 276 206 212 219 212 184 200
319 323 325 325 322 321 321 322 328 346 345 341 310 339 342 301 302 274 304 287 256 263 334 64 146 73 79 104 149 161 131 120 147 18 62 359 136 82 315 325 39 275 270 254 232 231 227
324 325 321 324 325 325 323 319 314 329 353 331 323 306 297 288 329 16 319 292 273 146 18 71 124 91 71 106 104 123 115 140 155 132 116 93 125 100 260 351 325 287 242 229 134 39 232
327 327 326 323 319 321 324 322 307 297 316 307 305 313 299 285 332 358 331 350 25 4 119 44 67 83 144 133 139 110 133 191 166 166 129 120 103 98 276 349 270 238 336 109 105 65 61
336 330 322 324 324 321 322 320 315 290 283 302 290 290 261 280 295 304 3 353 355 42 48 68 41 78 147 83 65 40 13 67 190 176 167 131 112 105 147 239 292 160 30 57 73 75 41
329 331 328 322 322 322 319 316 318 302 273 303 280 257 264 268 237 317 333 30 359 356 29 60 65 46 88 78 69 135 194 182 123 77 128 107 106 108 147 172 239 240 313 351 313 225 300
328 327 325 319 316 317 314 309 307 308 273 293 266 239 247 267 245 20 31 228 179 89 42 326 350 22 32 79 86 142 238 296 142 143 150 138 130 205 161 211 287 267 316 331 134 230 343
329 330 330 324 316 314 312 307 310 310 290 289 279 248 231 241 275 274 271 231 203 154 144 238 86 2 36 68 113 239 174 284 56 124 159 168 175 176 169 184 255 345 327 248 224 360 36
319 320 322 325 323 322 315 310 311 301 296 287 288 257 235 239 266 269 270 257 252 226 188 150 134 114 126 91 48 85 20 5 238 157 162 185 185 159 167 223 187 71 114 339 335 43 30
Wind_Speed_850mb
36 39 38 40 41 41 43 44 44 44 41 37 36 36 36 37 39 43 44 47 48 48 43 41 34 25 25 16 36 22 22 18 47 68 63 47 39 33 14 15 5 10 4 34 37 38 43
42 41 41 40 42 45 45 46 44 43 41 38 39 39 41 43 44 48 50 51 52 45 40 36 29 23 20 12 18 19 19 8 55 72 55 41 33 40 22 10 20 12 26 19 35 44 62
41 43 40 41 43 43 45 47 47 42 43 42 43 44 45 49 52 54 56 55 50 40 33 22 22 22 26 46 21 14 8 6 45 68 66 53 24 35 15 8 33 47 8 15 34 40 26
38 39 38 40 43 45 46 48 46 43 44 47 49 51 52 53 54 57 58 56 47 33 25 13 18 19 24 16 25 29 14 23 40 41 50 45 41 36 8 12 5 15 9 10 17 26 37
37 39 40 41 42 45 47 47 47 44 46 49 50 54 55 56 56 57 60 54 29 19 13 10 15 14 26 14 28 23 28 17 37 38 40 12 32 22 8 6 8 6 10 10 16 23 20
36 40 42 42 43 46 48 49 50 50 50 51 53 54 54 50 48 53 62 30 7 12 6 10 13 12 21 7 16 28 33 29 30 33 22 24 23 10 3 8 9 9 6 8 11 7 11
41 46 48 48 48 49 50 51 53 53 53 54 55 55 49 47 48 59 42 2 6 3 23 25 16 18 30 14 10 27 27 36 33 16 13 17 7 10 16 15 12 6 5 10 9 11 2
47 50 52 51 50 51 50 50 52 54 56 57 56 53 51 51 51 31 18 4 4 2 18 38 46 47 45 42 12 27 37 21 17 12 6 8 13 19 12 11 10 10 6 13 12 10 10
48 52 54 51 49 51 53 53 52 55 55 56 56 57 55 48 39 10 20 7 20 14 8 16 35 31 30 21 17 23 39 30 7 8 7 11 9 8 10 8 9 10 9 12 14 5 3
52 55 56 57 57 56 55 53 55 56 58 56 57 58 54 50 18 11 6 20 28 6 6 9 10 12 24 18 10 22 44 24 3 16 11 9 13 9 6 12 13 11 14 22 18 9 7
52 56 58 57 55 58 58 56 59 59 58 55 53 54 55 47 37 35 3 17 10 5 4 8 7 8 19 29 5 19 40 32 14 11 11 12 3 5 4 10 11 18 17 25 14 7 10
51 53 57 56 56 58 61 61 59 61 59 59 57 52 56 43 35 17 14 2 5 7 11 7 12 12 10 9 4 13 17 35 8 9 3 12 4 5 10 8 3 11 7 14 9 7 2
50 53 56 58 57 60 60 64 63 63 62 61 60 52 47 47 24 18 9 4 6 7 2 11 10 10 12 11 7 9 11 13 11 6 3 4 5 5 3 1 13 15 11 4 5 3 10
52 54 57 59 63 66 64 62 63 64 61 61 60 55 45 33 23 26 9 6 8 11 9 5 11 10 10 10 10 13 12 8 5 6 6 9 4 10 1 6 6 4 10 10 13 8 7
59 54 57 62 66 63 62 60 60 62 65 61 66 59 37 18 32 31 13 6 12 11 5 3 7 9 8 5 8 9 15 14 13 12 13 9 3 9 9 5 7 2 6 6 12 6 6
53 55 53 60 60 58 57 57 57 59 65 58 64 64 31 22 29 36 7 10 9 9 0 5 6 2 5 10 6 5 12 3 9 13 8 10 4 4 4 1 7 5 6 3 7 9 7
49 47 50 53 56 55 51 52 53 56 61 55 45 28 10 29 35 17 7 12 11 25 13 8 9 5 6 8 9 1 3 7 13 9 10 7 7 6 3 2 4 7 3 9 9 8 9
43 43 50 56 56 52 44 46 48 50 59 49 20 6 13 28 2 4 6 10 11 17 28 6 6 7 7 6 6 6 7 4 5 7 6 4 8 5 5 10 2 7 4 7 8 8 5
43 46 50 55 54 45 38 38 38 39 44 53 34 16 5 32 5 8 11 13 12 6 7 5 4 4 6 7 10 8 9 10 8 7 7 5 3 4 5 9 12 8 6 10 9 5 8
49 48 50 48 47 46 41 39 38 32 33 39 16 7 10 1 4 7 10 9 8 2 4 12 11 8 9 7 11 7 7 12 13 13 24 10 6 6 9 6 5 3 3 6 12 4 3
49 47 44 42 42 43 40 38 33 32 31 27 6 5 8 7 7 14 9 10 10 5 12 8 9 5 9 8 5 7 7 7 15 18 11 8 6 4 2 5 3 8 10 14 13 12 16
45 42 42 40 41 40 38 32 27 27 29 11 8 8 16 13 17 9 5 7 5 3 7 4 10 2 10 9 5 10 10 3 4 12 7 7 5 4 5 6 7 7 16 13 16 22 23
44 41 40 40 42 42 39 32 23 19 22 10 13 11 6 11 8 6 6 12 11 10 18 15 12 9 16 7 10 14 8 12 14 11 5 5 9 5 6 9 12 11 11 14 4 8 10
41 42 42 41 38 36 35 30 21 16 10 17 21 17 6 6 4 5 16 18 15 10 10 9 16 8 6 7 4 5 5 9 12 6 10 8 7 5 1 7 3 8 11 12 22 10 12
50 45 42 43 43 37 36 31 24 18 14 17 20 14 7 5 6 9 15 12 14 22 12 11 13 9 10 5 6 7 7 3 4 10 9 8 8 7 4 3 11 1 4 4 4 2 5
50 49 43 42 40 34 34 32 28 22 17 22 19 18 11 5 5 9 5 9 6 7 6 5 12 8 3 6 5 5 6 5 6 7 9 9 9 7 6 4 7 7 5 13 4 4 1
45 48 47 41 37 35 32 30 28 22 18 22 23 18 10 8 7 4 2 1 3 6 2 5 6 7 9 4 4 4 4 4 6 11 10 7 3 11 7 5 12 7 13 15 4 6 4
44 45 46 43 39 36 33 32 29 22 18 22 13 16 17 9 21 22 16 11 4 4 6 3 3 6 6 5 5 3 3 4 4 6 10 9 12 7 7 7 12 9 4 0 5 5 4
42 46 47 44 36 30 29 29 28 16 17 23 18 19 20 13 12 14 27 30 23 12 8 5 8 3 3 6 3 3 4 6 2 5 5 7 8 6 9 3 5 9 7 6 13 5 10
Wind_Direction_850mb
344 342 337 334 333 334 333 334 336 336 337 335 332 331 328 327 325 323 319 316 316 307 304 307 289 270 285 278 265 303 305 276 188 186 190 194 178 174 187 194 142 195 164 198 230 237 275
340 340 339 332 330 328 328 330 330 330 332 332 328 327 325 324 323 321 319 316 314 302 298 302 272 256 262 262 280 304 343 266 182 182 182 186 187 177 192 205 184 209 212 209 239 232 237
336 336 335 331 329 332 329 327 325 322 323 325 321 319 318 318 318 321 318 319 314 297 292 293 254 252 260 257 280 290 336 234 184 183 185 188 192 194 199 177 232 229 167 225 231 230 236
330 332 334 334 334 331 331 328 324 321 318 319 317 315 314 313 315 317 318 319 312 289 282 268 251 254 257 272 231 246 194 174 192 190 201 203 197 213 264 290 102 159 154 224 235 218 233
334 335 334 333 332 332 335 334 331 327 324 322 319 317 314 313 314 318 317 321 306 272 268 240 238 234 266 222 223 234 218 182 180 195 207 153 212 228 248 152 19 355 177 183 270 201 204
339 339 338 336 336 334 337 336 334 331 329 327 323 321 318 318 319 319 319 321 283 251 214 189 209 282 253 196 287 234 240 212 174 186 205 209 212 186 86 103 202 214 197 206 212 235 200
345 343 340 338 337 334 332 332 331 329 327 329 329 327 325 320 323 320 319 318 173 203 216 216 188 229 295 294 225 208 221 214 219 182 173 184 152 198 206 181 191 237 225 233 238 240 261
341 340 338 335 332 329 328 328 327 327 327 329 332 331 326 322 325 326 342 191 325 354 287 264 248 252 260 272 293 237 206 193 168 203 133 40 211 216 201 176 203 223 248 276 283 266 160
335 335 335 333 330 325 323 323 324 325 326 327 331 331 329 324 321 300 330 23 0 289 256 274 232 232 243 219 224 244 196 194 146 138 168 173 236 168 169 224 207 232 197 254 218 329 210
334 334 334 335 336 333 329 324 326 325 324 326 328 331 331 326 311 276 357 348 349 163 20 262 221 231 180 183 239 236 197 189 119 185 171 228 284 222 214 237 184 256 207 238 254 134 219
334 337 338 337 334 334 335 330 324 322 321 323 322 326 328 322 292 278 300 337 344 108 332 170 167 165 171 166 146 187 199 203 174 185 118 233 220 79 239 207 161 229 217 207 210 180 123
328 331 328 326 328 329 330 331 326 322 320 321 320 322 321 312 281 219 280 1 144 36 253 209 150 169 140 180 175 165 161 201 203 160 202 218 234 222 215 273 209 274 107 53 48 96 206
323 326 328 326 327 331 330 330 329 324 322 321 317 318 312 291 272 193 273 191 67 199 243 180 194 160 176 172 186 172 159 157 170 152 231 282 211 264 242 56 359 50 60 0 323 352 214
319 318 320 324 326 329 332 330 330 325 323 319 316 315 306 268 218 234 220 58 206 231 230 245 151 124 181 162 220 179 136 176 208 145 122 180 219 166 59 122 191 17 134 151 204 200 230
316 318 316 318 320 322 328 328 329 326 326 326 320 318 304 243 209 203 185 189 217 217 265 304 112 137 217 165 140 132 185 199 195 166 161 164 255 78 100 167 132 217 58 175 105 14 71
315 314 316 315 317 321 325 328 329 329 329 334 330 323 302 198 190 177 121 240 249 232 250 332 152 192 164 196 112 119 159 2 156 187 163 198 132 31 111 281 28 124 150 71 16 144 202
312 317 316 318 321 323 326 327 329 331 332 338 336 326 338 178 174 173 196 232 276 287 265 175 201 116 148 134 127 202 58 31 28 13 126 107 111 272 87 88 140 21 46 71 109 133 164
323 319 317 323 324 326 328 327 330 336 337 344 357 330 46 159 99 219 202 208 267 289 304 196 123 116 137 127 120 122 119 124 257 349 48 16 124 151 211 309 285 90 120 119 138 202 163
322 318 320 325 328 323 325 327 329 337 342 340 322 280 54 200 256 268 281 289 289 302 316 346 114 167 81 118 108 108 99 21 92 88 157 165 44 96 24 349 12 102 120 118 103 81 193
323 319 323 326 328 326 326 327 328 336 337 337 306 326 321 84 111 359 330 279 285 226 55 16 344 87 85 67 18 112 95 15 31 83 59 89 91 147 189 149 164 157 92 146 121 188 226
315 316 324 327 325 325 325 326 331 343 340 334 281 293 346 324 339 335 315 294 309 283 122 102 328 34 138 112 80 87 58 30 36 1 41 81 113 81 7 289 276 206 212 219 212 184 200
319 323 325 325 322 321 321 322 328 346 345 341 310 339 342 301 302 274 304 287 256 263 334 64 146 73 79 104 149 161 131 120 147 18 62 359 136 82 315 325 39 275 270 254 232 231 227
324 325 321 324 325 325 323 319 314 329 353 331 323 306 297 288 329 16 319 292 273 146 18 71 124 91 71 106 104 123 115 140 155 132 116 93 125 100 260 351 325 287 242 229 134 39 232
327 327 326 323 319 321 324 322 307 297 316 307 305 313 299 285 332 358 331 350 25 4 119 44 67 83 144 133 139 110 133 191 166 166 129 120 103 98 276 349 270 238 336 109 105 65 61
336 330 322 324 324 321 322 320 315 290 283 302 290 290 261 280 295 304 3 353 355 42 48 68 41 78 147 83 65 40 13 67 190 176 167 131 112 105 147 239 292 160 30 57 73 75 41
329 331 328 322 322 322 319 316 318 302 273 303 280 257 264 268 237 317 333 30 359 356 29 60 65 46 88 78 69 135 194 182 123 77 128 107 106 108 147 172 239 240 313 351 313 225 300
328 327 325 319 316 317 314 309 307 308 273 293 266 239 247 267 245 20 31 228 179 89 42 326 350 22 32 79 86 142 238 296 142 143 150 138 130 205 161 211 287 267 316 331 134 230 343
329 330 330 324 316 314 312 307 310 310 290 289 279 248 231 241 275 274 271 231 203 154 144 238 86 2 36 68 113 239 174 284 56 124 159 168 175 176 169 184 255 345 327 248 224 360 36
319 320 322 325 323 322 315 310 311 301 296 287 288 257 235 239 266 269 270 257 252 226 188 150 134 114 126 91 48 85 20 5 238 157 162 185 185 159 167 223 187 71 114 339 335 43 30